Tracking 30157 objects as of 12-Feb-2025
HD Live streaming from Space Station
objects crossing your sky now

STARLINK-4300

Track STARLINK-4300 now!
10-day predictions
STARLINK-4300 is classified as:


NORAD ID: 53173
Int'l Code: 2022-083AT
Perigee: 545.9 km
Apogee: 547.9 km
Inclination: 53.2 °
Period: 95.4 minutes
Semi major axis: 6917 km
RCS: Unknown
Launch date: July 17, 2022
Source: United States (US)
Launch site: AIR FORCE EASTERN TEST RANGE (AFETR)
Your satellite tracking list
Your tracking list is empty




NASA's NSSDC Master Catalog

Two Line Element Set (TLE):
1 53173U 22083AT  25042.58362928 -.00001060  00000-0 -48509-4 0  9999
2 53173  53.2171  94.8534 0001420  98.6915 261.4238 15.08835839143293
Source of the keplerian elements: AFSPC